TimeAEST,TemperatureF,Dew PointF,Humidity,Sea Level PressureIn,VisibilityMPH,Wind Direction,Wind SpeedMPH,Gust SpeedMPH,PrecipitationIn,Events,Conditions,WindDirDegrees,DateUTC
12:00 AM,74,73,97,30.02,,ESE,5.8,,,,,110,2013-04-23 14:00:00
12:00 AM,75.2,73.4,94,30.01,-9999.0,ESE,5.8,-,N/A,,Unknown,110,2013-04-23 14:00:00
12:30 AM,75.2,73.4,94,30.01,-9999.0,East,6.9,-,N/A,,Unknown,90,2013-04-23 14:30:00
1:00 AM,75.2,73.4,94,29.98,-9999.0,ENE,4.6,-,N/A,,Unknown,70,2013-04-23 15:00:00
1:30 AM,75.2,73.4,94,29.98,-9999.0,North,1.2,-,N/A,,Unknown,10,2013-04-23 15:30:00
2:00 AM,75.2,73.4,94,29.98,-9999.0,NNW,2.3,-,N/A,,Unknown,340,2013-04-23 16:00:00
2:30 AM,75.2,73.4,94,29.98,-9999.0,East,4.6,-,N/A,,Unknown,90,2013-04-23 16:30:00
3:00 AM,75,73,92,29.98,,East,4.6,,,,,80,2013-04-23 17:00:00
3:00 AM,75.2,73.4,94,29.98,-9999.0,East,4.6,-,N/A,,Unknown,80,2013-04-23 17:00:00
3:30 AM,75.2,73.4,94,29.98,-9999.0,East,3.5,-,N/A,,Unknown,90,2013-04-23 17:30:00
4:00 AM,75.2,71.6,89,29.98,-9999.0,ENE,6.9,-,N/A,,Unknown,60,2013-04-23 18:00:00
4:30 AM,75.2,71.6,89,29.98,-9999.0,NNE,4.6,-,N/A,,Unknown,30,2013-04-23 18:30:00
5:00 AM,73.4,73.4,100,29.98,-9999.0,North,3.5,-,N/A,,Unknown,10,2013-04-23 19:00:00
5:30 AM,73.4,73.4,100,29.98,-9999.0,NNW,3.5,-,N/A,,Unknown,340,2013-04-23 19:30:00
6:00 AM,74,73,97,29.98,,Calm,Calm,,,,,,2013-04-23 20:00:00
6:00 AM,73.4,73.4,100,29.98,-9999.0,Calm,Calm,-,N/A,,Unknown,0,2013-04-23 20:00:00
6:30 AM,73.4,73.4,100,29.98,-9999.0,North,4.6,-,N/A,,Unknown,350,2013-04-23 20:30:00
7:00 AM,73.4,73.4,100,30.01,-9999.0,NW,4.6,-,N/A,,Unknown,310,2013-04-23 21:00:00
7:30 AM,75.2,73.4,94,30.01,-9999.0,NW,3.5,-,N/A,,Unknown,310,2013-04-23 21:30:00
8:00 AM,77.0,71.6,83,30.01,-9999.0,NNW,3.5,-,N/A,,Unknown,340,2013-04-23 22:00:00
8:30 AM,78.8,73.4,83,30.01,-9999.0,Calm,Calm,-,N/A,,Unknown,0,2013-04-23 22:30:00
9:00 AM,79,72,73,30.03,,WNW,1.2,,,,,300,2013-04-23 23:00:00
9:00 AM,78.8,71.6,78,30.04,-9999.0,WNW,1.2,-,N/A,,Unknown,300,2013-04-23 23:00:00
9:30 AM,80.6,73.4,79,30.04,-9999.0,NW,2.3,-,N/A,,Unknown,320,2013-04-23 23:30:00
10:00 AM,80.6,71.6,74,30.04,-9999.0,East,3.5,-,N/A,,Unknown,100,2013-04-24 00:00:00
10:30 AM,80.6,73.4,79,30.01,-9999.0,NW,4.6,-,N/A,,Unknown,320,2013-04-24 00:30:00
11:00 AM,80.6,73.4,79,30.01,-9999.0,SW,2.3,-,N/A,,Unknown,220,2013-04-24 01:00:00
11:30 AM,82.4,73.4,74,30.01,-9999.0,NW,4.6,-,N/A,,Unknown,310,2013-04-24 01:30:00
12:00 PM,82,72,65,29.99,,NNW,10.4,,,,,330,2013-04-24 02:00:00
12:00 PM,82.4,71.6,70,29.98,-9999.0,NNW,10.4,-,N/A,,Unknown,330,2013-04-24 02:00:00
12:30 PM,80.6,73.4,79,29.98,-9999.0,NNW,11.5,-,N/A,,Unknown,330,2013-04-24 02:30:00
1:00 PM,80.6,73.4,79,29.95,-9999.0,NNW,11.5,-,N/A,,Unknown,330,2013-04-24 03:00:00
1:30 PM,82.4,73.4,74,29.95,-9999.0,NW,11.5,-,N/A,,Unknown,320,2013-04-24 03:30:00
2:00 PM,82.4,73.4,74,29.95,-9999.0,NNW,11.5,-,N/A,,Unknown,330,2013-04-24 04:00:00
2:30 PM,82.4,75.2,79,29.92,-9999.0,NNW,11.5,-,N/A,,Unknown,330,2013-04-24 04:30:00
3:00 PM,82,75,73,29.94,,NNW,11.5,,,,,330,2013-04-24 05:00:00
3:00 PM,82.4,75.2,79,29.92,-9999.0,NNW,11.5,-,N/A,,Unknown,330,2013-04-24 05:00:00
3:30 PM,82.4,73.4,74,29.95,-9999.0,NNW,6.9,-,N/A,,Unknown,330,2013-04-24 05:30:00
4:00 PM,82.4,73.4,74,29.95,-9999.0,NW,8.1,-,N/A,,Unknown,310,2013-04-24 06:00:00
4:30 PM,80.6,73.4,79,29.95,-9999.0,NW,9.2,-,N/A,,Unknown,320,2013-04-24 06:30:00
5:00 PM,78.8,73.4,83,29.95,-9999.0,NNW,9.2,-,N/A,,Unknown,330,2013-04-24 07:00:00
5:30 PM,78.8,73.4,83,29.95,-9999.0,NNW,6.9,-,N/A,,Unknown,330,2013-04-24 07:30:00
6:00 PM,77,73,83,29.97,,NNW,2.3,,,,,340,2013-04-24 08:00:00
6:00 PM,77.0,73.4,89,29.98,-9999.0,NNW,2.3,-,N/A,,Unknown,340,2013-04-24 08:00:00
6:30 PM,77.0,73.4,89,29.98,-9999.0,NE,4.6,-,N/A,,Unknown,50,2013-04-24 08:30:00
7:00 PM,77.0,73.4,89,29.98,-9999.0,NE,6.9,-,N/A,,Unknown,50,2013-04-24 09:00:00
7:30 PM,77.0,73.4,89,29.98,-9999.0,NE,8.1,-,N/A,,Unknown,50,2013-04-24 09:30:00
8:00 PM,75.2,73.4,94,30.01,-9999.0,NE,8.1,-,N/A,,Unknown,50,2013-04-24 10:00:00
8:30 PM,75.2,73.4,94,30.01,-9999.0,ENE,6.9,-,N/A,,Unknown,60,2013-04-24 10:30:00
9:00 PM,76,73,87,30.02,,ENE,5.8,,,,,60,2013-04-24 11:00:00
9:00 PM,75.2,73.4,94,30.01,-9999.0,ENE,5.8,-,N/A,,Unknown,60,2013-04-24 11:00:00
9:30 PM,77.0,73.4,89,30.01,-9999.0,NE,4.6,-,N/A,,Unknown,50,2013-04-24 11:30:00
10:00 PM,77.0,73.4,89,30.01,-9999.0,NE,4.6,-,N/A,,Unknown,50,2013-04-24 12:00:00
10:30 PM,77.0,73.4,89,30.01,-9999.0,ENE,6.9,-,N/A,,Unknown,60,2013-04-24 12:30:00
11:00 PM,77.0,73.4,89,30.01,-9999.0,ENE,8.1,-,N/A,,Unknown,60,2013-04-24 13:00:00
11:30 PM,77.0,73.4,89,30.01,-9999.0,ENE,6.9,-,N/A,,Unknown,70,2013-04-24 13:30:00